Regional Weather Roundup
Issued by NWS

Home | Current Version | Previous Version | Text Only | Print | Product List | Glossary On
Versions: 1 2 3 4 5 6 7 8 9 10 11 12 13 14 15 16 17 18 19 20 21 22 23 24 25 26 27 28 29 30 31 32 33 34 35 36 37 38 39 40 41 42 43 44 45 46 47 48 49 50
000
ASPQ40 PGUM 011514
RWRPQ
WEATHER ROUNDUP FOR THE MARIANAS AND MICRONESIA
NATIONAL WEATHER SERVICE TIYAN GU
100 AM CHST THU JUL 02 2015

GUZ001>004-011600-
MARIANA ISLANDS-

CITY           SKY/WX    TMP DP  RH WIND       PRES   REMARKS
GUAM AIRPORT   CLEAR     79  75  89 N3        29.84F
ANDERSEN AFB   MOCLDY    79  77  94 NE12      29.84F
ROTA AIRPORT   NOT AVBL
TINIAN AP      NOT AVBL
SAIPAN AP      CLEAR     79  75  89 NW6       29.83F

$$

PMZ161-011600-
REPUBLIC OF PALAU-

CITY           SKY/WX    TMP DP  RH WIND       PRES   REMARKS
KOROR AP       CLOUDY    82  73  74 SW13G20   29.87S
KOROR WSO      CLOUDY    82  75  78 SW10      29.86F

$$

PMZ171>174-011600-
FEDERATED STATES OF MICRONESIA-

CITY           SKY/WX    TMP DP  RH WIND       PRES   REMARKS
YAP AIRPORT    CLOUDY    82  75  78 W10G17    29.82S
CHUUK AP       LGT RAIN  82  77  83 SW14      29.68F HX  91
POHNPEI AP     NOT AVBL
POHNPEI WSO    LGT RAIN  79  77  94 SW5       29.74F
KOSRAE AP      NOT AVBL

$$

PMZ181-011600-
REPUBLIC OF THE MARSHALL ISLANDS-

CITY           SKY/WX    TMP DP  RH WIND       PRES   REMARKS
KWAJALEIN AP   CLEAR     81  73  78 E9        29.74F
MAJURO AP      NOT AVBL
MAJURO WSO     MOCLDY    77  75  94 W10       29.70F

$$



USA.gov is the U.S. government's official web portal to all federal, state and local government web resources and services.